Notices

What's New in latest Release from April 7th, 2021:

- Updated Glossary, including Speed of Maximum Gust, and Total Hourly Precipitation

- Updated national and regional climate services offices contacts and prices information

- Addition of station inventory lists for 1981-2010, 1971-2000, and 1961-1990 Normals.

If you haven't already, please take our survey and provide feedback about our website: https://eccc.sondage-survey.ca/f/LanguageSelection.aspx?s=442ca660-fcf1-47c0-95a9-59707d6fd709

Hourly Data Report for January 21, 2017

TORONTO CITY
ONTARIO

43°40'00.000" N
79°24'00.000" W
112.50 m
6158355
71508
XTO

Download Data

Hourly Data (January 2017)
Hourly Data Report for January 21, 2017
TIME
LST
Temp Definition
°C
Dew Point Definition
°C
Rel Hum Definition
%
Precip. Amount Definition
mm

Wind Dir Definition
10's deg

Wind Spd Definition
km/h
Visibility Definition
km
Stn Press Definition
kPa
Hmdx Definition


Wind Chill Definition


Weather Definition


00:00 4.0 3.5 97 0.0 LegendMM LegendMM   99.41     LegendNANA
01:00 4.2 3.7 97 0.0 LegendMM LegendMM   99.44     LegendNANA
02:00 4.0 3.5 97 0.0 LegendMM LegendMM   99.47     LegendNANA
03:00 4.2 3.7 96 0.0 LegendMM LegendMM   99.50     LegendNANA
04:00 4.0 3.3 95 0.0 LegendMM LegendMM   99.48     LegendNANA
05:00 3.9 2.8 92 0.0 LegendMM LegendMM   99.44     LegendNANA
06:00 4.1 3.3 94 0.0 LegendMM LegendMM   99.49     LegendNANA
07:00 4.1 3.3 94 0.0 LegendMM LegendMM   99.52     LegendNANA
08:00 3.8 3.0 94 0.0 LegendMM LegendMM   99.52     LegendNANA
09:00 3.7 2.9 94 0.0 LegendMM LegendMM   99.49     LegendNANA
10:00 4.1 3.2 93 0.0 LegendMM LegendMM   99.47     LegendNANA
11:00 5.4 3.6 88 0.0 LegendMM LegendMM   99.44     LegendNANA
12:00 6.0 3.7 85 0.0 LegendMM LegendMM   99.39     LegendNANA
13:00 5.8 3.8 87 0.0 LegendMM LegendMM   99.30     LegendNANA
14:00 6.4 4.2 86 0.0 LegendMM LegendMM   99.25     LegendNANA
15:00 6.1 4.2 87 0.0 LegendMM LegendMM   99.28     LegendNANA
16:00 5.0 3.9 92 0.0 LegendMM LegendMM   99.29     LegendNANA
17:00 4.8 4.1 95 0.0 LegendMM LegendMM   99.26     LegendNANA
18:00 4.6 4.0 96 0.0 LegendMM LegendMM   99.26     LegendNANA
19:00 4.8 4.3 96 0.0 LegendMM LegendMM   99.28     LegendNANA
20:00 5.3 4.5 94 0.0 LegendMM LegendMM   99.31     LegendNANA
21:00 5.4 4.3 93 0.0 LegendMM LegendMM   99.26     LegendNANA
22:00 5.2 4.3 94 0.0 LegendMM LegendMM   99.24     LegendNANA
23:00 4.9 4.2 95 0.0 LegendMM LegendMM   99.21     LegendNANA

Notes on Data Quality.

Legend

  • E = Estimated
  • M = Missing
  • NA = Not Available*
  • [empty] = Indicates an unobserved value
Date modified: